Weather reports worldwide

Advertisment
Lefkopa, Cyprus (17515): temperature & dewpoint: 14.01.2021 15:00:00 - 20.01.2021 15:00:00 (EET)Lefkopa, Cyprus (17515): wind speed: 14.01.2021 15:00:00 - 20.01.2021 15:00:00 (EET)Lefkopa, Cyprus (17515): wind direction: 14.01.2021 15:00:00 - 20.01.2021 15:00:00 (EET)Lefkopa, Cyprus (17515): reduced air pressure: 14.01.2021 15:00:00 - 20.01.2021 15:00:00 (EET)Lefkopa, Cyprus (17515): visibility: 14.01.2021 15:00:00 - 20.01.2021 15:00:00 (EET)
Date & Time tt [°C] td [°C] ff [km/h] ff [kn] dd ppp [hPa] vv [km]
20.01.2021 15:00:00 - - - - - - -
20.01.2021 14:00:00 9,7 -4,0 18 10 NW 1022,8 10
20.01.2021 13:00:00 9,2 -3,2 31 17 NW 1022,0 10
20.01.2021 12:00:00 9,0 -3,1 24 13 NW 1022,1 10
20.01.2021 11:00:00 8,3 -2,5 37 20 NW 1021,4 10
20.01.2021 10:00:00 7,9 -2,7 24 13 NW 1021,4 10
20.01.2021 09:00:00 6,1 0,3 21 11 NNW 1019,9 10
20.01.2021 08:00:00 5,5 2,1 0 0 N 1019,0 10
20.01.2021 07:00:00 5,4 2,7 0 0 N 1018,5 10
20.01.2021 06:00:00 4,7 3,0 8 4 ESE 1018,1 10
20.01.2021 05:00:00 5,9 2,8 5 3 SSE 1017,1 10
20.01.2021 04:00:00 6,1 2,0 - - - 1017,0 10
20.01.2021 03:00:00 5,2 1,2 - - - 1014,5 10
20.01.2021 02:00:00 5,4 1,0 - - - 1014,5 10
20.01.2021 01:00:00 5,5 5,0 - - - 1015,5 10
20.01.2021 00:00:00 7,0 5,3 - - - 1015,0 10
19.01.2021 23:00:00 7,5 5,6 139 75 N 1015,0 10
19.01.2021 22:00:00 7,5 6,2 - - - 1014,9 10
19.01.2021 21:00:00 8,0 7,4 - - - 1014,5 10
19.01.2021 20:00:00 8,0 7,4 - - - 1014,4 10
19.01.2021 19:00:00 8,5 7,8 - - - 1014,3 10
19.01.2021 18:00:00 9,0 7,6 - - - 1014,4 10
19.01.2021 17:00:00 10,0 8,0 - - - 1014,7 10
19.01.2021 16:00:00 11,0 9,0 - - - 1014,7 10
19.01.2021 15:00:00 11,0 8,0 - - - 1015,3 10
19.01.2021 14:00:00 10,2 7,2 - - - 1015,3 10
19.01.2021 13:00:00 12,5 9,2 - - - 1014,7 9
19.01.2021 12:00:00 - - - - - - -
19.01.2021 11:00:00 10,5 8,5 - - - 1015,6 10
19.01.2021 10:00:00 9,5 7,4 - - - 1014,4 9
19.01.2021 09:00:00 9,1 8,0 - - - 1014,2 10
19.01.2021 08:00:00 8,8 7,2 - - - 1013,8 9
19.01.2021 07:00:00 8,6 7,5 - - - 1013,4 10
19.01.2021 06:00:00 8,9 7,7 - - - 1013,4 10
19.01.2021 05:00:00 8,7 6,1 5 3 N 1014,5 10
19.01.2021 04:00:00 8,6 6,9 8 4 WNW 1014,6 10
19.01.2021 03:00:00 7,8 7,3 8 4 W 1015,0 10
19.01.2021 02:00:00 7,7 7,2 0 0 N 1014,1 10
19.01.2021 01:00:00 7,6 7,2 0 0 N 1013,9 10
19.01.2021 00:00:00 7,7 7,3 9 5 NE 1013,8 9
18.01.2021 23:00:00 7,8 7,4 0 0 N 1014,9 9
18.01.2021 22:00:00 8,2 7,4 0 0 N 1016,1 9
18.01.2021 21:00:00 8,2 7,0 0 0 N 1016,0 9
18.01.2021 20:00:00 9,1 6,3 0 0 N 1016,6 10
18.01.2021 19:00:00 9,2 5,5 0 0 N 1016,9 10
18.01.2021 18:00:00 9,2 5,7 8 4 W 1017,1 10
18.01.2021 17:00:00 10,0 6,5 15 8 W 1017,5 10
18.01.2021 16:00:00 10,1 6,4 26 14 WSW 1017,2 9
18.01.2021 15:00:00 11,6 4,9 28 15 WSW 1016,7 10
18.01.2021 14:00:00 14,5 1,1 21 11 S 1016,0 10
18.01.2021 13:00:00 14,2 1,1 16 9 S 1016,3 10
18.01.2021 12:00:00 13,9 1,3 18 10 SSW 1016,8 10
18.01.2021 11:00:00 12,3 3,0 22 12 SSW 1017,5 10
18.01.2021 10:00:00 12,6 3,7 16 9 S 1017,2 10
18.01.2021 09:00:00 6,6 5,1 0 0 N 1016,7 10
18.01.2021 08:00:00 4,8 3,8 0 0 N 1016,3 10
18.01.2021 07:00:00 5,3 3,5 0 0 N 1015,6 10
18.01.2021 06:00:00 7,2 5,3 0 0 N 1014,1 10
18.01.2021 05:00:00 7,1 5,1 0 0 N 1014,1 10
18.01.2021 04:00:00 7,8 5,1 0 0 N 1014,0 10
18.01.2021 03:00:00 - - - - - - -
18.01.2021 02:00:00 9,7 3,0 13 7 S 1012,4 10
18.01.2021 01:00:00 10,5 1,3 15 8 SSW 1011,7 10
18.01.2021 00:00:00 11,0 1,4 28 15 SW 1011,3 10
17.01.2021 23:00:00 10,7 1,1 29 16 SW 1010,5 10
17.01.2021 22:00:00 11,0 1,2 22 12 WSW 1010,2 10
17.01.2021 21:00:00 10,9 2,6 29 16 S 1009,5 10
17.01.2021 20:00:00 10,7 3,4 28 15 SSW 1009,3 10
17.01.2021 19:00:00 10,3 5,2 9 5 SSW 1009,1 10
17.01.2021 18:00:00 10,5 6,0 13 7 SSW 1008,8 10
17.01.2021 17:00:00 11,8 6,0 21 11 WSW 1008,1 10
17.01.2021 16:00:00 12,2 6,7 35 19 SW 1007,3 10
17.01.2021 15:00:00 11,5 8,9 16 9 SSW 1007,0 10
17.01.2021 14:00:00 11,9 8,6 15 8 WSW 1006,9 10
17.01.2021 13:00:00 11,0 8,1 13 7 SW 1007,1 10
17.01.2021 12:00:00 15,1 7,9 13 7 SSW 1006,7 10
17.01.2021 11:00:00 13,9 8,4 11 6 SSW 1007,1 10
17.01.2021 10:00:00 11,3 10,6 9 5 SW 1007,8 10
17.01.2021 09:00:00 9,4 9,1 0 0 N 1007,9 10
17.01.2021 08:00:00 7,6 7,3 0 0 N 1007,5 10
17.01.2021 07:00:00 7,2 6,9 0 0 N 1007,2 10
17.01.2021 06:00:00 8,1 7,8 5 3 NW 1006,9 10
17.01.2021 05:00:00 8,1 7,8 0 0 N 1007,4 8
17.01.2021 04:00:00 7,7 7,4 0 0 N 1007,2 0,5
17.01.2021 03:00:00 8,1 7,8 0 0 N 1007,3 0,3
17.01.2021 02:00:00 7,9 7,6 0 0 N 1007,5 0,1
17.01.2021 01:00:00 8,3 8,0 0 0 N 1007,4 0,1
17.01.2021 00:00:00 8,1 7,7 0 0 N 1008,1 10
16.01.2021 23:00:00 8,7 8,3 0 0 N 1008,7 10
16.01.2021 22:00:00 8,5 7,9 0 0 N 1008,9 10
16.01.2021 21:00:00 9,8 9,1 0 0 N 1008,8 10
16.01.2021 20:00:00 10,7 9,8 0 0 N 1009,0 10
16.01.2021 19:00:00 11,4 10,5 5 3 N 1009,2 10
16.01.2021 18:00:00 11,2 10,4 9 5 NNE 1009,0 10
16.01.2021 17:00:00 11,5 10,6 5 3 ENE 1009,2 8
16.01.2021 16:00:00 12,2 10,9 8 4 NNE 1008,8 10
16.01.2021 15:00:00 12,3 11,0 5 3 ENE 1009,0 8
16.01.2021 14:00:00 12,2 11,0 5 3 E 1009,4 10
16.01.2021 13:00:00 13,0 11,7 0 0 N 1009,8 8
16.01.2021 12:00:00 17,0 9,2 28 15 SE 1009,9 9
16.01.2021 11:00:00 15,0 10,0 15 8 NE 1011,0 10
16.01.2021 10:00:00 11,9 9,0 5 3 ENE 1012,3 10
16.01.2021 09:00:00 8,0 6,0 0 0 N 1012,4 10
16.01.2021 08:00:00 7,6 5,9 0 0 N 1012,7 10
16.01.2021 07:00:00 8,1 6,2 0 0 N 1012,5 10
16.01.2021 06:00:00 8,4 6,3 0 0 N 1012,2 10
16.01.2021 05:00:00 9,2 7,0 5 3 NW 1012,6 10
16.01.2021 04:00:00 7,7 5,8 0 0 N 1012,8 10
16.01.2021 03:00:00 7,0 4,9 0 0 N 1013,0 10
16.01.2021 02:00:00 - - - - - - -
16.01.2021 01:00:00 9,6 6,8 0 0 N 1013,5 10
16.01.2021 00:00:00 8,3 5,5 0 0 N 1014,2 10
15.01.2021 23:00:00 10,1 6,5 0 0 N 1014,4 10
15.01.2021 22:00:00 8,0 5,2 0 0 N 1014,7 10
15.01.2021 21:00:00 - - - - - - -
15.01.2021 20:00:00 7,6 4,5 5 3 NNW 1014,8 10
15.01.2021 19:00:00 9,7 4,3 0 0 N 1014,8 10
15.01.2021 18:00:00 11,9 3,9 0 0 N 1014,4 10
15.01.2021 17:00:00 16,6 5,5 8 4 SW 1013,9 10
15.01.2021 16:00:00 16,8 5,8 15 8 WSW 1013,8 10
15.01.2021 15:00:00 17,7 6,4 9 5 W 1013,5 10
15.01.2021 14:00:00 17,3 4,6 8 4 SW 1013,7 10
15.01.2021 13:00:00 17,0 4,5 8 4 SSW 1014,1 10
15.01.2021 12:00:00 16,6 4,9 15 8 WSW 1015,2 10
15.01.2021 11:00:00 16,0 4,6 16 9 WSW 1015,6 10
15.01.2021 10:00:00 14,5 8,1 11 6 SW 1015,9 10
15.01.2021 09:00:00 9,5 6,1 0 0 N 1014,6 10
15.01.2021 08:00:00 6,7 3,8 0 0 N 1014,4 10
15.01.2021 07:00:00 7,6 4,1 5 3 NW 1013,9 10
15.01.2021 06:00:00 6,0 3,7 0 0 N 1013,5 10
15.01.2021 05:00:00 7,9 4,1 0 0 N 1012,6 10
15.01.2021 04:00:00 10,1 4,6 8 4 WSW 1012,3 10
15.01.2021 03:00:00 9,7 5,0 11 6 WSW 1012,4 10
15.01.2021 02:00:00 9,7 5,4 8 4 SSW 1011,3 10
15.01.2021 01:00:00 9,5 6,0 0 0 N 1010,9 10
15.01.2021 00:00:00 9,7 6,3 0 0 N 1010,8 10
14.01.2021 23:00:00 10,5 6,1 8 4 SW 1010,4 10
14.01.2021 22:00:00 11,2 5,7 11 6 WSW 1009,7 10
14.01.2021 21:00:00 11,6 5,2 9 5 SSW 1008,9 10
14.01.2021 20:00:00 11,8 4,6 11 6 SSW 1008,4 10
14.01.2021 19:00:00 12,5 4,1 9 5 SSW 1007,5 10
14.01.2021 18:00:00 13,1 4,8 9 5 WSW 1007,0 10
14.01.2021 17:00:00 14,0 5,5 9 5 SSW 1006,2 10
14.01.2021 16:00:00 15,4 5,5 28 15 SW 1005,9 10
14.01.2021 15:00:00 15,7 4,8 37 20 SSW 1005,5 10

tt = temperature
td = dewpoint
ff = wind speed
dd = wind direction
ppp = reduced air pressure
vv = visibility

Next stations